Location: Beau Repaire
(50.6144°N, 4.0551°E)
Time: 15:58:02
(UTC+00:00)

Cosmos 2360 Rocket - Pass Details

Date: 15 May 2026
Orbit: 831 x 845 km, 71.0° (Epoch: 10 June)

Event Time Altitude Azimuth Distance (km) Brightness Sun altitude
Rises 21:44:27 0° 327° (NNW) 3,416 7.2 -15.8°
Reaches altitude 10° 21:46:58 10° 322° (NW) 2,477 5.9 -16.0°
Maximum altitude 21:52:24 48° 250° (WSW) 1,096 2.8 -16.4°
Enters shadow 21:55:50 22° 186° (S) 1,779 3.4 -16.7°
